Lid_Strength_Index
2 2 2 2 2 2 2 2 1 1 2 2 2 2 3 3 2 2 2 3 1 1 1 0 1 1 0 -1 -1 -1 -1 0
3 3 3 4 3 3 3 2 3 3 2 2 2 3 3 4 2 3 2 2 3 2 1 1 0 0 0 -0 -0 -1 -1 -1
4 4 4 5 4 3 3 3 3 2 2 2 3 3 3 3 3 3 3 2 2 1 1 1 0 1 1 0 0 0 0 0
4 5 5 5 4 4 3 3 3 2 2 3 3 3 3 2 2 1 1 2 1 2 1 2 2 1 4 3 2 1 1 1
4 5 4 4 4 3 4 3 2 2 2 2 3 3 4 4 3 4 3 3 2 2 2 2 2 1 5 5 4 2 2 2
4 4 4 3 3 2 4 3 3 3 2 2 3 2 4 4 4 4 4 4 4 4 4 4 4 3 6 6 4 4 4 4
4 3 4 3 2 3 3 3 3 3 3 3 3 2 2 4 3 3 4 3 3 3 4 4 4 4 7 7 4 4 4 4
3 3 3 3 3 2 3 3 3 4 3 3 2 2 3 4 2 2 3 2 2 3 4 4 5 2 8 7 5 4 3 3
3 3 4 4 3 3 3 3 3 3 2 2 3 3 3 2 2 2 2 4 4 3 3 1 1 2 3 7 7 1 2 0
3 4 4 3 3 3 4 3 2 3 2 3 3 2 2 2 1 2 1 1 1 1 -0 0 -0 -1 6 6 6 6 4 0
3 3 3 3 3 2 3 3 2 2 3 3 2 1 1 1 0 0 0 0 1 1 1 2 0 -0 -1 5 6 5 5 0
3 3 4 3 3 2 2 2 2 2 2 2 1 1 0 -0 0 0 2 3 2 2 1 1 1 1 2 2 -0 -0 4 1
3 3 3 3 2 2 1 1 1 2 2 1 1 0 -0 0 0 1 2 4 5 3 2 2 3 4 6 9 8 4 3 4
2 2 2 3 3 1 1 1 1 2 2 1 1 1 1 1 1 2 9 8 9 10 10 8 4 10 10 10 10 10 10 10
3 3 2 3 2 1 1 1 1 1 0 1 -0 2 1 1 1 2 3 6 9 10 10 10 11 11 11 11 10 10 9 7
2 2 2 3 3 2 1 1 0 0 -0 5 1 1 1 1 2 2 3 3 4 4 9 9 11 11 11 11 10 8 4 5
2 2 2 3 4 4 3 1 0 -0 0 1 0 1 1 1 1 2 3 3 4 4 5 7 8 10 10 10 8 4 5 5
2 3 2 2 2 1 -0 -0 -0 -0 -0 4 3 1 2 2 2 3 3 4 4 4 5 6 5 5 4 4 4 4 5 5
2 1 1 1 1 -0 0 -1 -1 -0 0 0 4 1 2 3 3 3 3 4 4 4 5 7 14 5 4 4 5 6 6 6
1 1 1 0 -0 -0 -1 -1 -1 -1 0 1 2 2 2 3 3 3 3 4 4 4 4 6 11 4 4 4 5 6 6 6